Triathlon Szene Österreich

Tolle Ergebnisse der über 150 Österreicher beim IRONMAN 70.3 Pula

Bei der zweiten Austragung des IRONMAN 70.3 Pula konnten die Athleten endlich auch das stille Meer genießen und die Auftaktdisziplin von 1,9 Kilometern darin abhalten. Still war das Meer allerdings nur vor dem Start. Denn an die 2.000 Teilnehmer hatten mit starkem Regen, Wind und kühlen Temperaturen zu kämpfen, die während dem Bewerb einsetzten. Der IRONMAN 70.3 Pula ist ein reiner Age Group Bewerb.

Beatrice Weiss, die auch bereits beim 5150 in Budapest mit einer starken Leistung aufzeigte, holte sich bei den Damen den fünften Gesamtrang. Nur einen Rang hinter der jungen Österreicherin kam Johanna Priglinger auf Rang sechs in ihrem letzten Vorbereitungswettkampf vor den IRONMAN World Championship ins Ziel.

Die Ergebnisse aller Österreicher

PlatzPl.AKNameAKVereinTimeSwimBikeRun
238Gaugl, Sebastian25Fluid-life team.sports.challenge04:39:3500:33:2202:27:0801:33:01
259Huber, Peter25Triathlon Mattigtal04:39:5500:34:1902:32:0201:27:42
313Innerhofer, Alois40Team Trialize04:43:0700:35:1602:29:1501:32:08
3310Egretzberger, Rainer35URC Spk Renner Langenlois04:43:5500:35:4902:33:3301:28:20
431Huss, Erwin50Stefflhof Adventures04:45:3200:34:5802:31:4201:31:15
4611Piller, Johannes45Triathlon Team Pöttsching04:46:1900:33:5302:31:3001:33:31
516Klatzer, Andi40Schwimm Aktiv Club04:47:4400:37:2602:35:1801:27:17
5216Barounig, Bernd35pewag racing team04:48:1900:36:3002:34:0601:30:27
5312Lichtkoppler, Kurt45TORINESItri / ISTRIABIKE.COM04:48:2000:38:1402:37:1801:25:42
583Melmer, Dietmar50su tristyria04:50:0400:39:4402:30:1701:31:16
7019Schnitzler, Michael3504:52:2900:34:5102:34:0301:36:18
7413Heidegger, Bernd25Tri-Dornbirn04:52:5200:39:3302:30:0601:34:43
809Gesellmann, Andy30purplepatch fitness04:53:3400:36:3202:39:2301:31:32
8712Meyer, Thomas30Tri Team Bludenz, Radsport Bachmann, Zäha Walser04:54:4600:43:2502:31:1501:34:08
9015Temel, Stefan25RSG Lebring04:55:0500:41:4602:33:1101:31:22
9816Zeller, Rudolf45TV Zell am See04:56:5300:39:3402:35:3101:34:58
9924Götzinger, Ulrich35Biketeam Köttmannsdorf04:57:0100:36:4202:38:4101:34:25
10016Gell, Christian30Tri Union Lungau04:57:1900:40:0902:37:3701:31:51
1027Dannhauser, Werner50TV Zell am See04:57:4700:38:1602:41:3601:30:18
10817Lutschounig, Manuel25WFV Finkenstein am FaakerSee04:59:0000:38:1402:36:3101:36:20
11119Kleineberg, Christian4004:59:2900:42:4902:40:5901:25:27
11218Kremon, Mario25Team Mohrenwirt04:59:3900:42:2402:36:5701:34:00
11425Edelsbacher, Hubert35PEWAG Racing Team04:59:4300:38:3502:37:5001:35:46
11623Guttenberger, Wolfgang453 Team Saalfelden05:00:0500:41:3902:36:5901:33:38
11826Schagerl, Martin35Tri Team Ober Grafendorf05:00:2000:37:5002:33:4101:41:32
1276Lamprecht, Philipp18Stefflhof Adventures05:00:5500:40:4002:40:5101:32:30
12827Erath, Christoph45PROCYCLE Tri-Team Dornbirn05:01:0900:41:1002:34:2401:37:37
13428Pötzl, Harald45Sportverein trispoat05:01:5100:37:5502:37:3901:38:30
15126Peinhaupt, Anton30pewag racing team05:03:3400:44:3602:43:3801:25:23
15330Kranzinger, Bernhard35Tri Unlimited05:03:4000:33:5202:42:3501:39:47
51Weiß, Beatrice18Tri Spoat05:04:4300:30:4402:48:1601:39:47
16927Kutschera, Stefan30Union Tridevils05:05:1100:36:2602:40:4901:39:02
17128Zitz, Michael3005:05:2800:42:2402:37:2201:34:06
17829Binder, Joachim30NABABU-TriTeam05:06:0800:43:2202:37:3101:37:10
61Priglinger, Johanna40Veletage -Salon für Radkultur05:07:2400:38:1902:42:1101:39:34
19137Kocsis, Andreas35TRIm-Team Austria05:07:4600:37:4602:37:4401:43:51
20039Karlik, Philippe3505:08:5000:44:3602:40:4201:33:40
21027Starc, Gernot2505:09:2200:40:5002:38:4501:42:18
21134Chab, Thomas30Trics05:09:2900:43:2702:37:3601:38:20
21340Schruckmayr, Robert40P3 Trisports Team05:09:3300:45:1002:33:0601:41:44
21846Kochanowski, Alfred45MRRC München05:10:2200:40:0602:45:2001:37:37
23118Wrulich, Franz50Trispoat05:11:1700:41:3602:39:0001:41:40
23236Schmidlechner, Patrick30TRIm Team Austria05:11:2000:27:3602:39:5301:42:13
23952Kuhn, Peter45TrumerTriTeam / Team REBORN05:12:0500:41:2102:41:4701:41:44
25451Fuchsluger, Stefan40P3TriSports05:13:0600:38:3102:42:2101:45:01
26355Warmuth, Dietmar4505:13:5400:39:4602:43:5601:38:12
26554Lorentschitsch, Walter40SU TRI Styria05:13:5700:41:1302:43:4601:41:19
2739Lamprecht, Lukas18Stefflhof Adventures05:14:4600:42:4402:45:2401:39:20
27545Petrin, Maximilian30pewag racing team05:15:0200:43:0002:43:4601:40:59
27657Riemer, Florian3505:15:1000:40:0002:42:5301:43:17
28757Schober, Harald45ASV PUCH TRISTARS05:15:5200:41:0702:38:5001:47:52
29552Stastny, Juergen30bimato sports team05:16:1500:42:2402:42:5101:44:41
103Frei, Stefanie25Tri Team Bludenz05:16:2400:37:4202:41:0301:49:44
30054Tanner, Nik30SU Tri Styria05:17:1100:42:0402:48:0601:38:08
30862Hackl, Andreas45TRICS05:17:5000:46:3302:44:0501:37:51
31455Brungraber, Florian30RSC heindl OÖ05:18:1600:35:1103:24:2501:07:09
32227Dorner, Hans50RC Friedberg Pinggau05:18:5800:50:1502:43:4801:34:44
32766Rappelsberger, Hans-Peter45P3 Trisports Team05:19:2600:41:3102:37:2201:53:02
32863Heinisch, Michael40Triha05:19:2600:42:2202:40:0001:46:47
34365Wölik, Mario4005:20:5500:50:4402:43:4201:35:45
34472Schuschnig, Martin3505:21:0300:40:2202:48:2101:43:00
34771Bachmann, Martin4505:21:1400:42:1302:38:5701:51:14
36575Rossmann, Gerald45Running Heroes05:22:4300:48:3602:44:2501:41:13
37471Pokorny, Alexej40TRIHA05:23:1800:39:5002:47:1001:44:50
3797Wilfling, Rudolf55Stefflhof Adventures05:23:4300:39:1702:52:5601:44:45
39182Schöttl, Richard35Biketeam Köttmannsdorf05:24:5200:37:1402:38:2602:02:00
39331Hueckel, Manfred50Team Mohrenwirt05:25:0500:48:4302:45:0801:41:49
39780Altanbachev, Georgi4505:25:2000:46:4302:46:4301:41:58
39932Pichler, Thomas50RC TRI RUN ATUS WEIZ05:25:2400:41:0902:47:4501:46:54
40333Koprax, Franz50RATS Amstetten05:26:0900:46:4902:45:5001:41:59
42643Grossmann, Daniel2505:28:2000:39:1802:50:4601:47:06
43234Leeb, Gerhard50Schwimm Aktiv Club05:28:3300:45:2502:53:5401:39:54
43510Jäger, Kurt55Team Erdinger Alkoholfrei05:28:4700:45:3702:40:4701:53:28
43770Grünbacher, Christian30Triathlon Mattigtal05:28:5000:47:4302:56:0101:36:48
44446Piroutz, Sascha25Schwimm Aktiv Club05:29:1500:38:0502:48:4101:54:03
214Ruckhofer, Christine35Sportverein Trispoat05:29:4100:40:1602:52:1901:49:32
45173Galda, Thomas30Trics05:30:1800:38:1302:59:0501:43:37
46374Holzinger, Thomas30TRI Merion05:31:1600:37:1302:53:0101:51:56
262Greipel, Sabine50MSC Rogner Bad Blumau05:31:1900:39:0302:58:0601:46:47
46791Vallant, Günther4505:31:3600:52:2402:42:5501:47:13
279Feuchtner, Katharina30ALC Wels05:32:1900:42:2402:51:4601:50:36
48278Denda, Martin3005:33:4100:49:5002:49:4501:42:14
48911Grilz, Bernhard55Schwimm Aktiv Club05:34:0100:39:3002:46:3801:58:46
49298Faustmann, Alfred40P3 Trisports Team05:34:0800:49:2102:41:1101:54:10
502112Jeitler, Erwin35dertriathlon.comFürstenfeld05:34:5800:43:3302:48:3301:51:44
509113Lechner, Alexander35WSA greenteam05:35:2200:43:4102:49:3801:53:01
512100Schreiber, Walter4505:35:2900:39:4002:53:1101:52:13
51339Hutterer, Manfred50Dertriathlon.com Fürstenfeld05:35:3000:50:2102:50:2801:45:08
51885Rappold, Mario3005:35:4300:59:5202:40:0901:44:19
521102Bayer, Rudolf45Stefflhof Adventures05:35:4700:48:3002:50:0101:49:00
52815Reiger, Lukss18Gösselsdorfer Tri Team05:36:1600:45:3602:55:0601:43:50
338Rakowitz, Caroline35P3 Tri Team / ATUS Judenburg05:37:2000:33:4502:57:1401:57:56
54453Kremser, Daniel25Hrc Arbö – Wolfsberg05:38:2500:58:4102:46:0001:44:49
547110Gonaus, Markus40TV zell am See05:38:4900:44:5702:47:2101:57:41
56044Hornig, Reinhard50Tri Runners Baden05:39:4900:41:1202:53:3301:55:07
56391Swaschnig, Daniel30HRC-ARBÖ-WOLFSBERG05:39:5400:41:0803:09:1801:41:58
564113Stückler, Thomas4005:40:0700:48:2202:52:1301:48:28
579106Mick, Arno45SU TRI STYRIA05:41:0600:48:2902:49:1901:50:49
589130Scheickl, Markus35KSV-HN-TriTeam05:42:1801:02:4502:49:1501:38:04
594111Keller, Lukas45Team Mohrenwirt05:42:5900:47:1702:51:2101:54:37
60159Gamperl, Thomas25NABABU-TRITEAM05:43:3700:49:1002:55:3801:49:24
608114Posch, Manfred4505:44:1200:44:3702:57:5901:46:51
60997Allmayer, Michael30Sportverein Trispoat05:44:1200:48:5202:56:5301:46:31
61560Sackl, Moritz25Ritzelputzer05:44:3500:54:4302:54:2301:46:09
61761Mandler, Michael2505:44:4000:46:4402:55:1601:49:26
619124Jeitler, Erich40TAK Beer05:44:5400:45:2602:51:1901:58:44
638142Pirker, Michael35pewag racing team05:46:5400:47:1302:55:3701:52:02
4813Schmidlechner, Karin30TRIm Team Austria05:47:2400:50:1402:59:1001:51:18
647130Fellinger, Markus40schwimmaktiv05:48:3700:48:5802:57:2901:51:49
648118Haas, Wolfgang45P3 Trisports Team05:48:3900:46:3803:01:1701:48:25
649119Putz, Stefan4505:48:4600:53:4602:52:2201:54:05
655106Poul, Herbert3005:49:1600:53:0403:05:1101:38:53
5211Fenzl, Corinna40Asics TRI Klosterneuburg05:50:2800:42:2203:05:4701:52:52
682148Karner, Thomas35TAK-Beer05:52:2800:47:4902:58:4901:53:34
69969Treml, Patrick25TEAM ERDINGER ALKOHOLFREI05:54:1600:46:3702:57:0402:01:10
70061Sieberer, Johannes5005:54:1600:53:3603:02:2301:41:02
703114Aichlburg, Gerald3005:54:4400:48:3602:50:4402:03:09
706129Royer, Christian4505:55:0100:52:0002:59:5801:53:10
707144Fischer, Jochen40SU TRI STYRIA05:55:0200:48:2702:56:1301:59:47
711147Benkö, Christian4005:55:1301:00:3702:56:5701:46:10
712148Muehlebner, Arnold40TrumerTriTeam05:55:1800:48:1402:51:5301:59:12
722133Willmann, Christian45pewag racing team05:56:0400:41:4002:44:0002:18:11
723134Berger, Jürgen4505:56:0600:56:5002:51:1201:57:42
724135Sever, Eduard45105:56:1800:53:0302:48:3602:02:50
725136Schrempf, Bernhard45TRDEE05:56:2700:40:1603:05:1202:01:04
73519Andreas, Christian55RATS Amstetten05:57:1500:37:3603:05:1202:04:32
738139Busse, Jens45TRI TEAM HALLEIN05:57:2700:46:2002:52:3302:10:04
5812Trummler, Simone40SU TriStyria05:57:3500:49:3502:58:3001:51:11
75118Sackl, Fabian1805:58:2600:51:5502:50:3802:05:27
76174Zernatto, Max2506:00:0700:43:5402:59:2602:07:24
798167Thüringer, Hannes35trics.at06:04:3801:08:2003:00:4601:41:07
807152Kirchknopf, Hans4506:05:5000:53:5903:16:4101:43:36
7513Pfadenhauer, Dagmar40URC Spk Renner Langenlois06:08:0300:50:0203:23:2601:45:20
83524Kirchheimer, Johannes5506:10:0600:51:4503:03:4202:03:06
8014Benkö, Renate4006:10:5401:00:5703:04:5901:51:22
855162Metzler, Peter4506:12:2600:53:5503:04:4301:48:43
883184Oberlechner, Rene3506:15:2100:53:4502:51:1402:13:17
89489Dr. Frey, Erwin5006:16:4700:53:3903:07:4502:03:57
897189Sommer, Markus3506:17:2400:45:0603:17:1102:03:03
9427Grömer, Silvia30bimato sports team06:17:3400:49:5703:19:3801:59:16
9517Ballon Dr, Martina40MSC06:18:0000:56:3202:57:2602:09:49
968Schwarzmayer, Eva50Nababu-Triteam06:18:0400:50:2803:06:3202:07:03
903176Kammerlander, Thomas4006:18:1100:47:1903:08:5402:10:17
908178Aschauer, Werner40Rats Amstetten06:19:0300:51:0802:58:0002:19:01
10129Roblek, Cäcilia30Tristyle06:20:0900:52:5403:16:0702:01:39
915140Hof, Georg3006:20:3101:00:4603:09:1101:58:39
917179Hubert, Michael40trics06:20:4000:45:3402:56:0702:28:00
934197Rausch, Gernot3506:23:0000:50:4503:06:5202:13:13
93996Rupp, Manfred50trics06:23:4600:58:0803:06:4302:06:28
10218Hubert, Martina40trics.at06:23:5900:51:2903:02:5702:19:39
958203Pratter, Manfred35SU Tri Styria06:32:5400:53:3403:05:3402:19:36
964202Schacherhofer, Michael35Nora Racing Team06:25:3000:52:6403:12:4002:03:53
Schlagworte

Stefan Leitner

Stefan Leitner hat sich sein Leben lang dem Sport verschrieben - in aktiver wie in passiver Funktion. Als aktiver Age Group Triathlet konnte er sich mehrmals für den IRONMAN Hawaii qualifizieren und internationale Medaillen in seiner Altersklasse gewinnen.Er ist Inhaber und Geschäftsführer der Sport und Event Agentur Leitner.

Ähnliche Artikel

Back to top button
Close
X
X
X